[[{"header":{"parameterUnit":"m.s-1","parameterCategory":2,"la1":30.2992,"la2":30.254,"lo1":-89.0895,"lo2":-89.0443,"dy":0.0025,"dx":0.0025,"nx":19,"ny":19,"refTime":"2026-04-07T09:00:00:Z","depth":"0","parameterNumber":2,"parameterNumberName":"U-component_of_CURRENTS"},"data":[0,0,0,-0.0947,-0.0948,-0.0983,-0.0983,-0.0974,-0.0973,0,0,0,0,0,0,0,0,0,0,0,-0.0933,-0.0934,-0.0947,-0.0948,-0.0983,-0.0983,-0.0974,-0.0973,0,0,0,0,0,0,0,0,0,0,0,-0.0933,-0.0934,-0.0934,-0.0948,-0.0983,-0.0983,-0.0974,-0.0959,0,0,0,0,0,0,0,0,0,0,-0.0931,-0.0921,-0.0934,-0.0934,-0.0948,-0.0983,-0.0983,-0.0959,-0.096,-0.0943,0,-0.0954,0,-0.0965,-0.0972,-0.0972,0,0,0,-0.0943,-0.092,-0.0939,-0.0934,-0.0949,-0.0983,-0.0966,-0.096,-0.0961,-0.0944,-0.0954,-0.0954,-0.0965,-0.0972,-0.0972,-0.095,-0.095,0,0,-0.0941,-0.0929,-0.0938,-0.0939,-0.0963,-0.0965,-0.0967,-0.0961,-0.0958,-0.0954,-0.0954,-0.0964,-0.0972,-0.0971,-0.095,-0.095,0,0,0,-0.0939,-0.0927,-0.0947,-0.0939,-0.0951,-0.0966,-0.0969,-0.0958,-0.0968,-0.0954,-0.0964,-0.0971,-0.0971,-0.095,-0.095,-0.1018,0,0,0,-0.0937,-0.0927,-0.0946,-0.0937,-0.0952,-0.0961,-0.0965,-0.0968,-0.0968,-0.0964,-0.0971,-0.0971,-0.095,-0.095,-0.1016,-0.1107,0,0,0,-0.0931,-0.0925,-0.0934,-0.0937,-0.0956,-0.0962,-0.097,-0.0969,-0.0974,-0.0972,-0.0971,-0.095,-0.095,-0.1015,-0.1102,-0.1254,0,0,0,-0.0911,-0.0933,-0.0933,-0.096,-0.0956,-0.0985,-0.0971,-0.0988,-0.099,-0.0971,-0.095,-0.095,-0.1014,-0.1099,-0.1249,-0.1464,-0.1505,0,0,-0.0931,-0.0934,-0.0952,-0.0955,-0.0992,-0.0979,-0.1004,-0.1002,-0.0977,-0.0947,-0.0947,-0.1017,-0.1102,-0.1253,-0.1454,-0.1496,0,0,0,-0.0954,-0.0972,-0.0982,-0.1003,-0.1015,-0.1045,-0.1021,-0.1016,-0.1009,-0.0978,-0.0994,-0.1047,-0.114,-0.1257,-0.1289,-0.1385,-0.0949,-0.0949,-0.0949,-0.097,-0.0988,-0.102,-0.1043,-0.1062,-0.1077,-0.1111,-0.1095,-0.1028,-0.1032,-0.1082,-0.1222,-0.1341,-0.1369,-0.1461,-0.1026,-0.1027,-0.1027,-0.1027,-0.1012,-0.1035,-0.106,-0.1096,-0.1122,-0.1137,-0.1177,-0.1164,-0.1237,-0.1124,-0.1211,-0.1297,-0.141,-0.1495,-0.1031,-0.103,-0.103,-0.1029,-0.1029,-0.1024,-0.1037,-0.1057,-0.1109,-0.1171,-0.1195,-0.1353,-0.1347,-0.134,-0.1419,-0.1592,-0.1593,-0.1696,-0.1464,-0.1465,-0.1466,-0.1467,-0.1468,-0.1468,-0.1018,-0.1043,-0.1086,-0.1136,-0.12,-0.1311,-0.1466,-0.1587,-0.1738,-0.1742,-0.1744,-0.1771,-0.1358,-0.1373,-0.1484,-0.1481,-0.1479,-0.1478,-0.1477,-0.1027,-0.1029,-0.1109,-0.1173,-0.1346,-0.1525,-0.1689,-0.2031,-0.216,-0.2288,-0.2257,-0.1933,-0.1966,-0.194,-0.1969,-0.2229,-0.2229,-0.2229,-0.2229,-0.1019,-0.1028,-0.1152,-0.1289,-0.1478,-0.1642,-0.2052,-0.2333,-0.2568,-0.2655,-0.2615,-0.2529,-0.2495,-0.255,-0.251,-0.2546,-0.2946,-0.2947,-0.2947,-0.1014,-0.1063,-0.1153,-0.1295,-0.1534,-0.1782,-0.2138,-0.2573,-0.2911,-0.2974,-0.2711,-0.2681,-0.2537,-0.2474,-0.2531,-0.2467,-0.2514,0,0]},{"header":{"parameterUnit":"m.s-1","parameterCategory":2,"la1":30.2992,"la2":30.254,"lo1":-89.0895,"lo2":-89.0443,"dy":0.0025,"dx":0.0025,"nx":19,"ny":19,"refTime":"2026-04-07T09:00:00:Z","depth":"0","parameterNumber":3,"parameterNumberName":"V-component_of_CURRENTS"},"data":[0,0,0,-0.0127,-0.0126,-0.006,-0.006,0.0054,0.0055,0,0,0,0,0,0,0,0,0,0,0,-0.0149,-0.0148,-0.0127,-0.0126,-0.006,-0.006,0.0054,0.0055,0,0,0,0,0,0,0,0,0,0,0,-0.0149,-0.0149,-0.0148,-0.0126,-0.006,-0.006,0.0054,-0.0001,0,0,0,0,0,0,0,0,0,0,-0.0067,-0.0098,-0.0149,-0.0148,-0.0126,-0.006,-0.006,-0.0004,0.0003,0.003,0,0.0035,0,0.0044,0.0063,0.0063,0,0,0,-0.0116,-0.0103,-0.0085,-0.0148,-0.0125,-0.006,-0.0087,-0.0,0.0007,0.0038,0.0036,0.004,0.0046,0.0064,0.0064,0.0172,0.0172,0,0,-0.012,-0.0134,-0.009,-0.0081,-0.0114,-0.0089,-0.0085,0.0004,0.0009,0.0037,0.0043,0.0048,0.0064,0.0065,0.0172,0.0172,0,0,0,-0.0137,-0.0137,-0.012,-0.0085,-0.0077,-0.0087,-0.0083,0.0005,0.0011,0.0044,0.0049,0.0065,0.0066,0.0171,0.0172,0.0148,0,0,0,-0.0138,-0.0147,-0.0122,-0.013,-0.008,-0.004,-0.0083,0.0005,0.0015,0.0048,0.0065,0.0067,0.0171,0.0172,0.0148,0.0119,0,0,0,-0.0151,-0.0148,-0.0143,-0.0131,-0.0107,-0.0042,-0.0031,0.0007,0.0017,0.0063,0.0068,0.0171,0.0172,0.0148,0.012,0.0115,0,0,0,-0.0164,-0.017,-0.0143,-0.0141,-0.0108,-0.0064,-0.0031,0.0009,0.0046,0.0066,0.0171,0.0172,0.0148,0.012,0.0116,0.0085,0.0081,0,0,-0.0183,-0.0173,-0.0171,-0.0145,-0.0117,-0.0072,-0.0023,0.0036,0.0071,0.0145,0.0147,0.0148,0.012,0.0115,0.0134,0.0128,0,0,0,-0.0184,-0.0185,-0.017,-0.0146,-0.0101,-0.005,0.0012,0.0051,0.0119,0.0095,0.0172,0.0155,0.0153,0.0137,0.0132,0.0404,0.0176,0.0176,0.0176,-0.0238,-0.0206,-0.0195,-0.0148,-0.011,-0.0025,0.0021,0.009,0.0126,0.0156,0.0155,0.0158,0.0142,0.0138,0.042,0.0186,0.0186,0.0186,0.0186,-0.0276,-0.0272,-0.0216,-0.0198,-0.0123,-0.0075,0.0035,0.0075,0.0144,0.0168,0.0167,0.0135,0.0131,0.0434,0.0185,0.0185,0.0185,0.0185,0.0186,-0.0322,-0.0314,-0.0296,-0.0258,-0.0207,-0.0121,-0.0099,0.0006,0.0101,0.0116,0.0104,0.0104,0.0352,0.0116,0.0116,0.0116,0.0116,0.0116,0.0115,-0.038,-0.0357,-0.0378,-0.0327,-0.0327,-0.0291,-0.0182,-0.0136,-0.0014,0.0067,0.0068,0.0397,0.0136,0.0119,0.0113,0.0114,0.0114,0.0114,0.0114,-0.0438,-0.0439,-0.0488,-0.0503,-0.0511,-0.0584,-0.0432,-0.0318,-0.0202,-0.0145,0.0362,0.0054,0.0054,0.0058,0.004,0.0014,0.0014,0.0014,0.0014,-0.0494,-0.049,-0.0615,-0.0696,-0.0746,-0.0737,-0.0807,-0.0554,0.0001,0.0329,0.0479,0.0541,0.0533,0.0568,0.056,0.0555,0.0661,0.0663,0.0664,-0.0539,-0.0579,-0.0709,-0.0799,-0.0883,-0.0953,-0.1052,-0.0741,0.0217,0.0724,0.0873,0.0845,0.0971,0.0936,0.1015,0.0983,0.0981,0,0]}],[{"header":{"parameterUnit":"m.s-1","parameterCategory":2,"la1":30.2992,"la2":30.254,"lo1":-89.0895,"lo2":-89.0443,"dy":0.0025,"dx":0.0025,"nx":19,"ny":19,"refTime":"2026-04-07T09:00:00:Z","depth":"2","parameterNumber":2,"parameterNumberName":"U-component_of_CURRENTS"},"data":[0,0,0,-0.0879,-0.088,-0.0916,-0.0916,-0.0905,-0.0904,0,0,0,0,0,0,0,0,0,0,0,-0.0865,-0.0866,-0.0879,-0.088,-0.0916,-0.0916,-0.0905,-0.0904,0,0,0,0,0,0,0,0,0,0,0,-0.0865,-0.0866,-0.0866,-0.088,-0.0916,-0.0916,-0.0905,-0.089,0,0,0,0,0,0,0,0,0,0,-0.0862,-0.0852,-0.0866,-0.0866,-0.088,-0.0916,-0.0916,-0.089,-0.0891,-0.0872,0,-0.0884,0,-0.0895,-0.0903,-0.0902,0,0,0,-0.0875,-0.0851,-0.087,-0.0866,-0.088,-0.0916,-0.0898,-0.0891,-0.0892,-0.0873,-0.0884,-0.0884,-0.0895,-0.0902,-0.0902,-0.0878,-0.0878,0,0,-0.0873,-0.0861,-0.0869,-0.0871,-0.0896,-0.0897,-0.09,-0.0892,-0.0889,-0.0884,-0.0884,-0.0895,-0.0902,-0.0902,-0.0878,-0.0878,0,0,0,-0.087,-0.0859,-0.0879,-0.0871,-0.0883,-0.0899,-0.0901,-0.089,-0.0899,-0.0884,-0.0894,-0.0902,-0.0902,-0.0878,-0.0878,-0.0948,0,0,0,-0.0869,-0.0859,-0.0878,-0.087,-0.0884,-0.0893,-0.0898,-0.09,-0.0899,-0.0894,-0.0902,-0.0902,-0.0879,-0.0878,-0.0946,-0.1036,0,0,0,-0.0863,-0.0857,-0.0866,-0.0869,-0.0889,-0.0894,-0.0902,-0.09,-0.0905,-0.0902,-0.0901,-0.0879,-0.0878,-0.0945,-0.1031,-0.1181,0,0,0,-0.0843,-0.0865,-0.0866,-0.0892,-0.0889,-0.0917,-0.0903,-0.092,-0.0921,-0.0902,-0.0879,-0.0878,-0.0944,-0.1028,-0.1176,-0.1365,-0.1403,0,0,-0.0862,-0.0866,-0.0884,-0.0887,-0.0924,-0.0911,-0.0936,-0.0933,-0.0907,-0.0876,-0.0876,-0.0947,-0.1031,-0.118,-0.1354,-0.1394,0,0,0,-0.0886,-0.0904,-0.0914,-0.0935,-0.0946,-0.0976,-0.0952,-0.0947,-0.094,-0.0908,-0.0923,-0.0975,-0.1068,-0.1169,-0.1199,-0.0878,-0.0878,-0.0878,-0.0878,-0.0903,-0.092,-0.0952,-0.0975,-0.0994,-0.1008,-0.1041,-0.1024,-0.0958,-0.0963,-0.1012,-0.1151,-0.1253,-0.1279,-0.0956,-0.0957,-0.0957,-0.0957,-0.0957,-0.0946,-0.0969,-0.0993,-0.1029,-0.1054,-0.1069,-0.1107,-0.1095,-0.1166,-0.1055,-0.114,-0.1211,-0.1318,-0.0962,-0.0961,-0.0961,-0.096,-0.096,-0.0959,-0.096,-0.0972,-0.0993,-0.1043,-0.1104,-0.1128,-0.1282,-0.1276,-0.127,-0.1348,-0.1502,-0.1502,-0.1275,-0.1392,-0.1393,-0.1394,-0.1395,-0.1396,-0.1397,-0.0955,-0.098,-0.1023,-0.1072,-0.1134,-0.1244,-0.1395,-0.1513,-0.1652,-0.1649,-0.1651,-0.13,-0.1286,-0.1302,-0.1412,-0.141,-0.1408,-0.1406,-0.1405,-0.0965,-0.0967,-0.1047,-0.111,-0.1278,-0.1415,-0.1604,-0.1931,-0.2063,-0.2181,-0.1843,-0.1827,-0.1856,-0.1831,-0.1859,-0.2109,-0.2109,-0.2109,-0.2109,-0.0957,-0.0967,-0.1089,-0.1222,-0.1405,-0.1518,-0.183,-0.1982,-0.2115,-0.2065,-0.2065,-0.1934,-0.1911,-0.1932,-0.1904,-0.1928,-0.2196,-0.2195,-0.2194,-0.0953,-0.1001,-0.109,-0.1228,-0.1459,-0.1617,-0.1774,-0.1833,-0.1974,-0.2174,-0.1842,-0.2161,-0.1965,-0.193,-0.195,-0.191,-0.1945,0,0]},{"header":{"parameterUnit":"m.s-1","parameterCategory":2,"la1":30.2992,"la2":30.254,"lo1":-89.0895,"lo2":-89.0443,"dy":0.0025,"dx":0.0025,"nx":19,"ny":19,"refTime":"2026-04-07T09:00:00:Z","depth":"2","parameterNumber":3,"parameterNumberName":"V-component_of_CURRENTS"},"data":[0,0,0,-0.0113,-0.0112,-0.0045,-0.0045,0.007,0.0071,0,0,0,0,0,0,0,0,0,0,0,-0.0135,-0.0135,-0.0113,-0.0112,-0.0045,-0.0045,0.007,0.0071,0,0,0,0,0,0,0,0,0,0,0,-0.0135,-0.0135,-0.0134,-0.0112,-0.0045,-0.0045,0.007,0.0014,0,0,0,0,0,0,0,0,0,0,-0.0053,-0.0084,-0.0135,-0.0134,-0.0111,-0.0045,-0.0045,0.0012,0.0018,0.0045,0,0.005,0,0.0059,0.0078,0.0079,0,0,0,-0.0101,-0.0089,-0.007,-0.0134,-0.0111,-0.0045,-0.0072,0.0015,0.0022,0.0054,0.0051,0.0056,0.0061,0.0079,0.008,0.0187,0.0187,0,0,-0.0105,-0.012,-0.0076,-0.0066,-0.01,-0.0075,-0.007,0.0019,0.0024,0.0052,0.0058,0.0063,0.008,0.0081,0.0187,0.0187,0,0,0,-0.0123,-0.0122,-0.0106,-0.0071,-0.0063,-0.0073,-0.0068,0.002,0.0026,0.0059,0.0064,0.0081,0.0082,0.0186,0.0187,0.0162,0,0,0,-0.0124,-0.0133,-0.0108,-0.0116,-0.0065,-0.0025,-0.0069,0.002,0.003,0.0064,0.0081,0.0083,0.0186,0.0187,0.0161,0.0132,0,0,0,-0.0137,-0.0134,-0.0129,-0.0117,-0.0092,-0.0027,-0.0016,0.0022,0.0033,0.0079,0.0083,0.0186,0.0186,0.0161,0.0132,0.0126,0,0,0,-0.0151,-0.0157,-0.0129,-0.0127,-0.0093,-0.0049,-0.0016,0.0024,0.0061,0.0081,0.0186,0.0187,0.0161,0.0133,0.0127,0.0088,0.0082,0,0,-0.0169,-0.0159,-0.0157,-0.0131,-0.0103,-0.0057,-0.0009,0.005,0.0086,0.016,0.0162,0.0161,0.0132,0.0126,0.0136,0.0128,0,0,0,-0.017,-0.0171,-0.0156,-0.0132,-0.0086,-0.0036,0.0026,0.0065,0.0132,0.011,0.0186,0.0168,0.0165,0.0144,0.0139,0.0191,0.0191,0.019,0.019,-0.0225,-0.0192,-0.0181,-0.0134,-0.0096,-0.0012,0.0033,0.0102,0.0139,0.0168,0.0166,0.0167,0.0146,0.0141,0.0198,0.0198,0.0198,0.0198,0.0198,-0.0263,-0.0259,-0.0203,-0.0185,-0.0111,-0.0063,0.0045,0.0085,0.0152,0.0177,0.0176,0.0141,0.0134,0.0196,0.0196,0.0197,0.0197,0.0197,0.0197,-0.0309,-0.0301,-0.0283,-0.0247,-0.0197,-0.0111,-0.0092,0.0013,0.0108,0.0121,0.0104,0.0104,0.0129,0.0121,0.0121,0.0121,0.0121,0.0121,0.0121,-0.0368,-0.0345,-0.0367,-0.0316,-0.0317,-0.0282,-0.0175,-0.0131,-0.0014,0.0065,0.0065,0.0141,0.0143,0.0126,0.0119,0.0119,0.0119,0.0119,0.012,-0.0427,-0.0428,-0.0477,-0.0493,-0.0502,-0.0569,-0.0426,-0.0317,-0.0205,-0.0152,0.0044,0.0046,0.0047,0.0051,0.0033,0.0002,0.0002,0.0002,0.0001,-0.0483,-0.0479,-0.0604,-0.0686,-0.0737,-0.0721,-0.079,-0.0582,-0.0283,-0.0109,-0.0104,-0.0096,-0.0089,-0.0095,-0.0087,-0.0108,-0.0177,-0.0177,-0.0177,-0.0528,-0.0569,-0.0698,-0.0789,-0.0874,-0.0929,-0.1025,-0.0803,-0.0338,-0.0185,-0.0145,-0.0009,0.0017,0.0023,0.0027,0.0034,0.0006,0,0]}],[{"header":{"parameterUnit":"m.s-1","parameterCategory":2,"la1":30.2992,"la2":30.254,"lo1":-89.0895,"lo2":-89.0443,"dy":0.0025,"dx":0.0025,"nx":19,"ny":19,"refTime":"2026-04-07T09:00:00:Z","depth":"4","parameterNumber":2,"parameterNumberName":"U-component_of_CURRENTS"},"data":[0,0,0,-0.0186,-0.0188,-0.0226,-0.0226,-0.0228,-0.0228,0,0,0,0,0,0,0,0,0,0,0,-0.016,-0.016,-0.0186,-0.0188,-0.0226,-0.0226,-0.0228,-0.0228,0,0,0,0,0,0,0,0,0,0,0,-0.0159,-0.016,-0.0161,-0.0189,-0.0226,-0.0226,-0.0227,-0.0204,0,0,0,0,0,0,0,0,0,0,-0.017,-0.0171,-0.016,-0.0161,-0.0189,-0.0226,-0.0226,-0.0203,-0.0205,-0.0206,0,-0.0224,0,-0.0245,-0.0229,-0.0229,0,0,0,-0.016,-0.0169,-0.0179,-0.0161,-0.019,-0.0226,-0.0201,-0.0204,-0.0207,-0.0209,-0.0225,-0.0226,-0.0245,-0.023,-0.023,-0.0324,-0.0324,0,0,-0.0158,-0.0163,-0.0177,-0.0181,-0.0216,-0.02,-0.0203,-0.0206,-0.0216,-0.0225,-0.0226,-0.0245,-0.023,-0.023,-0.0323,-0.0324,0,0,0,-0.0171,-0.0162,-0.0171,-0.018,-0.0202,-0.0202,-0.0205,-0.0215,-0.0219,-0.0226,-0.0245,-0.023,-0.023,-0.0322,-0.0323,-0.0387,0,0,0,-0.0168,-0.0172,-0.0171,-0.0173,-0.0202,-0.022,-0.0214,-0.0217,-0.022,-0.0245,-0.023,-0.023,-0.0321,-0.0323,-0.0384,-0.0446,0,0,0,-0.0155,-0.0171,-0.0179,-0.0174,-0.0205,-0.022,-0.0223,-0.0218,-0.0232,-0.0229,-0.023,-0.032,-0.0322,-0.038,-0.0439,-0.0566,0,0,0,-0.015,-0.0193,-0.018,-0.024,-0.0205,-0.0264,-0.0223,-0.0272,-0.0281,-0.023,-0.0321,-0.0323,-0.0379,-0.0435,-0.056,-0.0492,0,0,0,-0.0203,-0.02,-0.0237,-0.0227,-0.0296,-0.0256,-0.0324,-0.0323,-0.0307,-0.0309,-0.0312,-0.0385,-0.0439,-0.0565,-0.0611,0,0,0,0,-0.0253,-0.0276,-0.0296,-0.0335,-0.0361,-0.0384,-0.0378,-0.0376,-0.0395,-0.0327,-0.0408,-0.0441,-0.0518,-0.0463,-0.0333,-0.0333,-0.0332,-0.0332,-0.0332,-0.0301,-0.0325,-0.0386,-0.0415,-0.0451,-0.048,-0.0507,-0.0504,-0.046,-0.0491,-0.0509,-0.0674,-0.0615,-0.0508,-0.0509,-0.0509,-0.0509,-0.0509,-0.051,-0.0369,-0.0398,-0.044,-0.0504,-0.0531,-0.0575,-0.0613,-0.0606,-0.0684,-0.0595,-0.0666,-0.0551,-0.0517,-0.0515,-0.0514,-0.0513,-0.0513,-0.0512,-0.0512,-0.0374,-0.0391,-0.044,-0.0521,-0.0593,-0.063,-0.0747,-0.0762,-0.0774,-0.0843,-0.083,-0.0761,-0.0742,-0.089,-0.0891,-0.0892,-0.0893,-0.0893,-0.0894,-0.0343,-0.0396,-0.045,-0.0538,-0.0593,-0.0691,-0.0834,-0.0922,-0.0964,-0.0944,-0.0895,-0.0804,-0.0791,-0.0767,-0.0907,-0.0905,-0.0903,-0.0902,-0.0901,-0.033,-0.035,-0.0427,-0.049,-0.0642,-0.072,-0.0883,-0.1054,-0.1175,-0.1205,-0.1008,-0.0999,-0.0992,-0.0976,-0.0957,-0.1159,-0.1159,-0.1159,0,-0.0297,-0.032,-0.0411,-0.0508,-0.0637,-0.0742,-0.0931,-0.1061,-0.1108,-0.1051,-0.1132,-0.0899,-0.0894,-0.087,-0.0857,-0.0826,0,0,0,-0.0279,-0.0309,-0.0357,-0.0469,-0.0618,-0.081,-0.0973,-0.1016,-0.1076,-0.1204,-0.1152,-0.1154,-0.102,-0.0945,-0.0915,-0.09,-0.0861,0,0]},{"header":{"parameterUnit":"m.s-1","parameterCategory":2,"la1":30.2992,"la2":30.254,"lo1":-89.0895,"lo2":-89.0443,"dy":0.0025,"dx":0.0025,"nx":19,"ny":19,"refTime":"2026-04-07T09:00:00:Z","depth":"4","parameterNumber":3,"parameterNumberName":"V-component_of_CURRENTS"},"data":[0,0,0,0.011,0.0111,0.0186,0.0187,0.0288,0.0289,0,0,0,0,0,0,0,0,0,0,0,0.0085,0.0085,0.011,0.0111,0.0186,0.0187,0.0288,0.0289,0,0,0,0,0,0,0,0,0,0,0,0.0085,0.0085,0.0085,0.0111,0.0186,0.0187,0.0288,0.0234,0,0,0,0,0,0,0,0,0,0,0.0162,0.0129,0.0085,0.0085,0.0111,0.0186,0.0187,0.0231,0.0237,0.025,0,0.0253,0,0.0265,0.0294,0.0295,0,0,0,0.0127,0.0124,0.0144,0.0085,0.0112,0.0186,0.0157,0.0235,0.0241,0.0258,0.0254,0.0258,0.0267,0.0295,0.0295,0.0343,0.0343,0,0,0.0123,0.0103,0.0139,0.0147,0.0119,0.0154,0.0159,0.0239,0.024,0.0254,0.026,0.0269,0.0295,0.0296,0.0343,0.0343,0,0,0,0.01,0.01,0.0118,0.0143,0.0152,0.0156,0.0161,0.0237,0.0243,0.0261,0.027,0.0296,0.0297,0.0343,0.0343,0.0301,0,0,0,0.0098,0.0085,0.0116,0.0106,0.015,0.0194,0.0158,0.0238,0.0247,0.0269,0.0296,0.0298,0.0343,0.0343,0.0302,0.0261,0,0,0,0.0083,0.0084,0.0089,0.0104,0.0129,0.0193,0.0204,0.024,0.0251,0.0295,0.0298,0.0343,0.0343,0.0304,0.0264,0.0234,0,0,0,0.0067,0.0055,0.0088,0.0082,0.0128,0.0162,0.0204,0.0234,0.0266,0.0296,0.0343,0.0343,0.0304,0.0266,0.0236,0.014,0,0,0,0.0039,0.0051,0.0048,0.0079,0.0094,0.0154,0.0178,0.0234,0.027,0.0321,0.0322,0.0302,0.0264,0.0235,0.0131,0,0,0,0,0.0031,0.0027,0.0038,0.0056,0.0097,0.0133,0.0196,0.0226,0.0273,0.0285,0.031,0.0287,0.027,0.0221,0.0342,0.0342,0.0342,0.0342,0.0342,-0.003,-0.0003,-0.0007,0.0031,0.0057,0.0125,0.0153,0.0205,0.0253,0.0263,0.0259,0.0214,0.0162,0.028,0.028,0.028,0.028,0.028,0.028,-0.008,-0.0083,-0.0045,-0.004,0.0011,0.004,0.0114,0.015,0.0186,0.0231,0.0218,0.0188,0.0276,0.0276,0.0277,0.0278,0.0278,0.0278,0.0278,-0.0123,-0.0122,-0.0115,-0.0108,-0.0089,-0.0027,-0.0042,0.0041,0.0121,0.0119,0.0072,0.0177,0.0172,0.0119,0.0118,0.0118,0.0118,0.0117,0.0117,-0.0171,-0.0164,-0.0197,-0.0182,-0.0197,-0.0196,-0.0134,-0.0116,-0.0016,-0.0006,0.01,0.016,0.0165,0.0163,0.0112,0.0113,0.0114,0.0114,0.0115,-0.0225,-0.0231,-0.029,-0.032,-0.0368,-0.0373,-0.0309,-0.025,-0.0238,-0.0199,-0.0066,-0.0056,-0.0056,-0.0046,-0.0055,-0.0172,-0.0173,-0.0175,0,-0.027,-0.0273,-0.039,-0.048,-0.0548,-0.0498,-0.0512,-0.0449,-0.0312,-0.0319,-0.0234,-0.0089,-0.008,-0.0082,-0.0074,-0.0088,0,0,0,-0.0313,-0.0346,-0.0456,-0.0551,-0.0643,-0.0593,-0.0521,-0.0507,-0.0322,-0.0316,-0.0211,-0.0202,-0.0046,0.0098,0.0123,0.0129,0.0127,0,0]}]]